Weather History for KCKC - May, 2012

Change the Weather History Date:

Wednesday, May 16, 2012

  Actual Average Record
Temperature  
Mean Temperature 40 °F -  
Max Temperature 53 °F 55 °F 71 °F (2001)
Min Temperature 28 °F 36 °F 26 °F (2014)
Degree Days  
Heating Degree Days 24    
Moisture  
Dew Point 24 °F    
Average Humidity 47    
Maximum Humidity 86    
Minimum Humidity 24    
Precipitation  
Precipitation 0.00 in - - ()
Sea Level Pressure  
Sea Level Pressure 30.09 in    
Wind  
Wind Speed 6 mph (West)    
Max Wind Speed 13 mph    
Max Gust Speed 18 mph    
Visibility 10 miles    
Events      
Averages and records for this station are not official NWS values.
T = Trace of Precipitation, MM = Missing Value Source: NWS Daily Summary

Daily Weather History Graph

Daily Weather History Graph

Search for Another Location

Airport or City:

Trip Planner

Search our weather history database for the weather conditions in past years. The results will help you decide how hot, cold, wet, or windy it might be!

Date:

Astronomy

May. 16, 2012 Rise Set
Actual Time 5:21 AM CDT 8:35 PM CDT
Civil Twilight 4:44 AM CDT 9:12 PM CDT
Nautical Twilight 3:55 AM CDT 10:01 PM CDT
Astronomical Twilight 2:54 AM CDT 11:03 PM CDT
Moon 3:07 AM CDT (5/16) 4:36 PM CDT (5/16)
Length of Visible Light 16h 28m
Length of Day
15h 13m
Waning Crescent, 16% of the Moon is Illuminated
May 16
Waning Crescent
May 20
New
May 28
First Quarter
Jun 4
Full
Jun 11
Last Quarter

Hourly Weather History & Observations

Time (CDT) Temp. Windchill Dew Point Humidity Pressure Visibility Wind Dir Wind Speed Gust Speed Precip Events Conditions
12:14 AM 42.8 °F 38.6 °F 23.0 °F 46% 30.03 in 10.0 mi NW 6.9 mph - N/A   Clear
12:33 AM 41.0 °F 38.0 °F 23.0 °F 49% 30.03 in 10.0 mi NW 4.6 mph - N/A   Clear
12:53 AM 41.0 °F 37.1 °F 21.2 °F 45% 30.04 in 10.0 mi WNW 5.8 mph - N/A   Clear
1:14 AM 39.2 °F 35.0 °F 23.0 °F 52% 30.04 in 10.0 mi WNW 5.8 mph - N/A   Clear
1:33 AM 39.2 °F 34.2 °F 24.8 °F 56% 30.04 in 10.0 mi NW 6.9 mph - N/A   Clear
1:54 AM 39.2 °F 35.0 °F 23.0 °F 52% 30.04 in 10.0 mi NW 5.8 mph - N/A   Clear
2:13 AM 39.2 °F 34.2 °F 23.0 °F 52% 30.04 in 10.0 mi NNW 6.9 mph - N/A   Clear
2:33 AM 37.4 °F 32.8 °F 23.0 °F 56% 30.05 in 10.0 mi NNW 5.8 mph - N/A   Clear
2:53 AM 35.6 °F 31.7 °F 24.8 °F 65% 30.05 in 10.0 mi NNW 4.6 mph - N/A   Clear
3:14 AM 35.6 °F 31.7 °F 24.8 °F 65% 30.06 in 10.0 mi NW 4.6 mph - N/A   Clear
3:33 AM 33.8 °F 29.6 °F 23.0 °F 65% 30.06 in 10.0 mi NNW 4.6 mph - N/A   Clear
3:54 AM 30.2 °F 24.3 °F 23.0 °F 75% 30.06 in 10.0 mi NNW 5.8 mph - N/A   Clear
4:13 AM 30.2 °F 24.3 °F 23.0 °F 75% 30.07 in 10.0 mi NNW 5.8 mph - N/A   Clear
4:33 AM 30.2 °F 24.3 °F 23.0 °F 75% 30.07 in 10.0 mi NNW 5.8 mph - N/A   Clear
4:53 AM 30.2 °F 24.3 °F 24.8 °F 80% 30.08 in 10.0 mi NNW 5.8 mph - N/A   Clear
5:14 AM 28.4 °F 21.2 °F 24.8 °F 86% 30.09 in 10.0 mi NNW 6.9 mph - N/A   Clear
5:33 AM 30.2 °F 23.4 °F 24.8 °F 80% 30.10 in 10.0 mi NNW 6.9 mph - N/A   Clear
5:54 AM 33.8 °F 29.6 °F 24.8 °F 70% 30.10 in 10.0 mi NW 4.6 mph - N/A   Clear
6:13 AM 33.8 °F 28.6 °F 24.8 °F 70% 30.12 in 10.0 mi NNW 5.8 mph - N/A   Clear
6:33 AM 35.6 °F 31.7 °F 26.6 °F 70% 30.12 in 10.0 mi NNW 4.6 mph - N/A   Clear
6:53 AM 39.2 °F 37.0 °F 26.6 °F 61% 30.13 in 10.0 mi NNW 3.5 mph - N/A   Clear
7:13 AM 41.0 °F 38.0 °F 26.6 °F 57% 30.13 in 10.0 mi NNW 4.6 mph - N/A   Clear
7:33 AM 42.8 °F 41.1 °F 26.6 °F 53% 30.13 in 10.0 mi NNW 3.5 mph - N/A   Clear
7:54 AM 44.6 °F 43.1 °F 26.6 °F 49% 30.14 in 10.0 mi North 3.5 mph - N/A   Clear
8:13 AM 44.6 °F - 26.6 °F 49% 30.14 in 10.0 mi Calm Calm - N/A   Clear
8:34 AM 46.4 °F 45.2 °F 24.8 °F 43% 30.14 in 10.0 mi West 3.5 mph - N/A   Clear
8:53 AM 46.4 °F 44.3 °F 26.6 °F 46% 30.13 in 10.0 mi South 4.6 mph - N/A   Clear
9:14 AM 48.2 °F - 23.0 °F 37% 30.13 in 10.0 mi NNW 4.6 mph - N/A   Scattered Clouds
9:33 AM 50.0 °F - 21.2 °F 32% 30.14 in 10.0 mi NW 6.9 mph - N/A   Scattered Clouds
9:53 AM 50.0 °F - 21.2 °F 32% 30.13 in 10.0 mi WNW 5.8 mph - N/A   Clear
10:14 AM 51.8 °F - 21.2 °F 30% 30.13 in 10.0 mi West 5.8 mph - N/A   Scattered Clouds
10:33 AM 51.8 °F - 21.2 °F 30% 30.13 in 10.0 mi NNW 5.8 mph - N/A   Clear
10:54 AM 53.6 °F - 19.4 °F 26% 30.13 in 10.0 mi NW 6.9 mph - N/A   Clear
11:13 AM 51.8 °F - 19.4 °F 28% 30.13 in 10.0 mi West 9.2 mph 17.3 mph N/A   Clear
11:33 AM 53.6 °F - 19.4 °F 26% 30.13 in 10.0 mi WNW 9.2 mph - N/A   Clear
11:54 AM 53.6 °F - 19.4 °F 26% 30.12 in 10.0 mi Calm Calm - N/A   Clear
12:13 PM 53.6 °F - 17.6 °F 24% 30.12 in 10.0 mi North 8.1 mph - N/A   Clear
12:33 PM 51.8 °F - 26.6 °F 38% 30.12 in 10.0 mi South 6.9 mph - N/A   Clear
12:53 PM 53.6 °F - 26.6 °F 35% 30.11 in 10.0 mi South 12.7 mph 16.1 mph N/A   Clear
1:14 PM 51.8 °F - 24.8 °F 35% 30.11 in 10.0 mi South 12.7 mph 17.3 mph N/A   Clear
1:33 PM 51.8 °F - 24.8 °F 35% 30.11 in 10.0 mi South 9.2 mph - N/A   Clear
1:53 PM 51.8 °F - 24.8 °F 35% 30.11 in 10.0 mi South 9.2 mph - N/A   Clear
2:14 PM 51.8 °F - 24.8 °F 35% 30.10 in 10.0 mi South 9.2 mph - N/A   Clear
2:33 PM 53.6 °F - 24.8 °F 33% 30.10 in 10.0 mi South 10.4 mph - N/A   Clear
2:53 PM 51.8 °F - 24.8 °F 35% 30.10 in 10.0 mi South 10.4 mph - N/A   Clear
3:13 PM 53.6 °F - 24.8 °F 33% 30.09 in 10.0 mi South 6.9 mph - N/A   Clear
3:34 PM 53.6 °F - 24.8 °F 33% 30.09 in 10.0 mi South 9.2 mph - N/A   Clear
3:53 PM 51.8 °F - 23.0 °F 33% 30.08 in 10.0 mi South 10.4 mph 18.4 mph N/A   Clear
4:13 PM 53.6 °F - 24.8 °F 33% 30.08 in 10.0 mi South 6.9 mph - N/A   Clear
4:34 PM 53.6 °F - 23.0 °F 30% 30.08 in 10.0 mi South 10.4 mph - N/A   Clear
4:53 PM 53.6 °F - 24.8 °F 33% 30.08 in 10.0 mi South 6.9 mph - N/A   Clear
5:33 PM 53.6 °F - 23.0 °F 30% 30.07 in 10.0 mi SSW 10.4 mph - N/A   Clear
5:53 PM 53.6 °F - 23.0 °F 30% 30.08 in 10.0 mi SSW 8.1 mph 16.1 mph N/A   Clear
6:34 PM 51.8 °F - 23.0 °F 33% 30.07 in 10.0 mi South 8.1 mph - N/A   Clear
6:53 PM 51.8 °F - 23.0 °F 33% 30.07 in 10.0 mi SSW 5.8 mph - N/A   Clear
7:13 PM 51.8 °F - 21.2 °F 30% 30.07 in 10.0 mi South 5.8 mph - N/A   Clear
7:33 PM 50.0 °F - 21.2 °F 32% 30.07 in 10.0 mi SSW 4.6 mph - N/A   Clear
7:53 PM 48.2 °F - 23.0 °F 37% 30.07 in 10.0 mi South 3.5 mph - N/A   Clear
8:13 PM 48.2 °F - 23.0 °F 37% 30.07 in 10.0 mi Calm Calm - N/A   Clear
8:33 PM 44.6 °F - 23.0 °F 43% 30.07 in 10.0 mi Calm Calm - N/A   Clear
8:53 PM 44.6 °F - 23.0 °F 43% 30.08 in 10.0 mi Calm Calm - N/A   Clear
9:13 PM 42.8 °F - 28.4 °F 57% 30.08 in 10.0 mi Calm Calm - N/A   Clear
9:33 PM 41.0 °F - 26.6 °F 57% 30.08 in 10.0 mi Calm Calm - N/A   Clear
9:53 PM 39.2 °F - 24.8 °F 56% 30.07 in 10.0 mi Calm Calm - N/A   Clear
10:13 PM 41.0 °F - 23.0 °F 49% 30.07 in 10.0 mi Calm Calm - N/A   Clear
10:33 PM 37.4 °F - 26.6 °F 65% 30.08 in 10.0 mi Calm Calm - N/A   Clear
10:53 PM 37.4 °F - 24.8 °F 60% 30.07 in 10.0 mi Calm Calm - N/A   Clear
11:13 PM 37.4 °F - 24.8 °F 60% 30.07 in 10.0 mi Calm Calm - N/A   Clear
11:33 PM 35.6 °F - 26.6 °F 70% 30.06 in 10.0 mi Calm Calm - N/A   Clear
11:53 PM 35.6 °F - 26.6 °F 70% 30.06 in 10.0 mi Calm Calm - N/A   Clear